User: anonymous   Login
Location: Unspecified
(0.0000°N, 0.0000°E)
Time: 15:57:35
(UTC+00:00)
Language:

USA 268 - Orbit

View from above orbital plane
View from above orbital plane
View from above satellite
View from above satellite

Ground track
Ground track

The orbit data is extracted from the following two-line orbital elements,

1 41584U 16036A   20022.34906391 0.00000000  00000-0  00000-0 0    02
2 41584   6.7347 351.7787 0050263  54.1464 306.3417  1.00270000    03
Epoch (UTC): 22 January 2020 08:22:39
Eccentricity: 0.0050263
inclination: 6.7347°
perigee height: 35575 km
apogee height: 35998 km
right ascension of ascending node: 351.7787°
argument of perigee: 54.1464°
revolutions per day: 1.00270000
mean anomaly at epoch: 306.3417°
orbit number at epoch: 0

The dashed part of the orbit path shows where the satellite is in the earth's shadow,  

DLR